Temp
24 24 24 24 24 24 24 23 23 23 23 23 23 22 22 22 22 21 21 21 21 21 21 20 20 20 20 20 19 19 19 19 19 19 19 19 19 19 19 19 19 19
24 24 24 24 23 23 23 23 23 23 23 23 23 23 22 22 21 21 21 21 21 21 21 20 20 20 20 19 19 19 19 19 19 19 19 19 19 19 19 19 19 19
23 23 23 23 23 23 23 23 23 23 23 23 23 22 22 22 21 21 21 21 21 21 20 20 20 20 20 20 19 19 19 19 19 19 19 19 19 19 19 19 19 19
23 23 23 23 23 23 23 23 23 23 23 23 23 22 22 22 21 21 21 21 21 20 20 20 20 20 20 20 19 19 19 19 19 19 19 19 19 19 19 19 19 19
23 23 23 23 23 23 23 23 23 23 23 23 23 22 22 21 21 21 21 21 21 20 20 20 20 20 20 20 19 19 19 19 19 19 19 19 19 19 19 19 19 19
23 23 23 23 23 23 23 23 23 23 23 23 23 22 22 21 21 21 21 21 20 20 20 20 20 20 20 20 20 19 19 19 19 19 19 19 19 19 19 19 19 19
23 23 23 23 23 23 23 23 23 23 23 23 22 22 22 21 21 21 21 20 20 20 20 20 20 20 20 20 20 20 20 20 20 20 20 20 20 20 20 20 19 19
22 22 22 22 23 23 23 23 23 23 23 23 22 22 22 21 21 21 20 20 20 20 20 20 20 20 20 20 20 20 20 20 20 20 20 20 20 20 20 20 19 19
22 22 22 22 23 23 23 23 23 23 23 23 22 22 21 21 21 21 21 20 20 20 20 20 20 20 20 20 20 20 20 20 20 20 20 20 20 20 20 20 19 19
22 22 22 22 22 23 23 23 23 23 23 23 22 22 21 21 21 21 21 21 21 20 20 20 20 21 21 21 20 20 20 20 20 20 20 20 20 20 20 20 19 20
22 21 21 22 22 23 23 23 23 23 23 22 22 21 21 21 21 21 21 21 21 21 20 20 21 21 21 21 21 21 21 21 20 20 20 20 20 20 20 20 20 20
22 21 21 22 22 22 23 23 23 23 23 22 21 21 21 21 22 22 22 21 21 21 20 20 21 21 21 21 21 21 21 21 21 20 20 21 21 21 21 20 20 20
22 22 21 22 22 22 22 23 23 23 23 22 21 22 21 21 21 22 22 21 21 21 21 21 21 21 21 21 21 21 21 21 21 21 21 21 21 21 21 20 20 20
22 22 21 21 21 22 22 22 23 23 23 22 21 21 21 21 21 22 22 22 21 21 21 21 21 21 21 21 21 21 21 21 21 21 21 21 21 21 21 20 20 20
22 21 21 21 21 22 22 22 22 23 23 22 21 21 21 21 20 21 22 22 21 21 20 20 21 21 21 21 21 21 21 21 21 21 21 21 20 20 21 21 21 21
22 21 21 20 20 21 21 20 21 22 22 21 21 21 21 20 20 20 21 21 21 20 20 20 21 21 21 21 21 21 21 21 21 21 20 20 20 21 21 21 21 21
22 21 20 20 20 20 20 19 20 21 21 21 20 20 20 19 19 20 20 20 20 20 20 20 21 21 21 21 21 22 21 21 20 20 21 21 21 21 21 21 21 20
21 21 20 20 19 19 19 19 18 18 19 20 20 19 19 19 19 19 20 20 20 20 20 21 21 21 21 21 22 22 21 21 20 20 21 21 21 21 20 20 20 20
21 20 20 19 19 19 19 18 17 17 18 18 18 18 18 19 19 19 19 19 19 20 20 20 21 21 21 21 22 22 21 21 20 21 21 21 20 20 20 20 20 20
21 20 20 19 19 18 18 17 17 17 17 17 17 17 18 19 19 19 18 18 19 20 20 20 20 21 21 21 21 22 21 21 21 21 21 21 20 20 20 20 20 19
20 20 19 19 19 18 17 17 17 17 17 17 17 17 18 19 18 18 18 18 19 20 20 20 20 21 21 21 21 22 21 21 21 20 20 20 20 20 20 19 19 19
20 20 19 19 19 18 17 17 17 17 17 17 17 17 18 18 18 18 18 18 19 20 20 20 20 21 21 21 21 21 21 21 20 20 20 20 20 20 19 19 18 18
19 19 19 19 18 18 17 17 17 17 17 17 17 17 18 18 18 18 18 19 19 20 20 20 20 21 21 21 21 21 21 20 20 20 20 19 19 19 19 18 18 17
19 19 19 19 18 18 17 17 17 17 17 17 17 18 18 18 18 19 19 19 19 20 20 20 20 20 21 21 21 20 20 20 20 19 19 19 19 19 18 18 18 17
19 19 19 19 18 18 17 17 17 17 17 17 18 18 18 19 19 19 19 19 19 19 19 19 19 20 20 21 20 20 20 20 19 19 18 18 18 18 18 18 17 16
19 19 19 18 18 18 17 17 18 18 18 18 18 18 19 19 19 19 19 19 19 19 19 19 19 19 20 20 20 19 20 19 18 17 17 17 17 17 17 17 16 16
Height
800 802 805 806 807 808 810 812 814 817 818 820 821 822 823 825 827 829 830 832 833 835 836 837 837 838 838 839 839 840 840 841 841 841 841 841 842 842 843 843 843 843
796 799 801 802 803 805 808 811 813 815 817 818 819 820 822 824 826 827 829 830 832 833 834 836 836 837 838 838 838 839 839 840 840 840 840 841 841 841 842 842 842 842
793 795 797 799 801 804 807 809 812 813 815 816 817 819 820 822 824 825 827 829 830 832 833 834 835 835 836 837 837 838 838 839 839 839 840 840 840 840 840 840 840 840
790 792 794 796 799 802 805 807 809 811 812 813 815 816 818 820 822 823 825 827 828 830 831 833 834 834 834 835 836 837 837 837 838 838 838 838 838 839 839 839 838 838
786 789 791 794 797 800 802 804 806 808 809 811 813 815 816 818 820 821 823 825 826 828 830 831 832 832 833 834 834 835 836 837 837 837 837 837 837 837 837 837 836 836
783 785 788 791 794 797 799 801 803 804 806 808 810 812 814 816 818 820 822 824 825 827 828 829 830 830 831 832 833 834 835 836 836 836 836 836 836 836 836 836 835 835
780 782 785 788 791 793 796 797 799 801 803 805 807 809 812 813 815 818 821 822 824 825 826 827 828 829 829 830 831 832 833 834 835 835 835 834 835 835 834 834 834 833
776 779 782 785 787 790 792 795 797 799 802 804 806 808 810 811 813 815 818 820 821 823 825 826 826 827 828 828 829 830 831 832 833 833 833 833 833 833 832 832 832 831
773 776 779 782 784 787 789 792 794 797 800 803 805 807 809 811 811 812 814 817 819 821 824 825 825 825 826 827 827 828 829 830 830 830 830 830 830 830 830 830 829 829
770 772 776 778 781 783 786 789 792 795 799 802 804 806 807 808 809 810 813 815 816 818 821 823 824 824 825 825 825 826 826 827 827 827 827 827 827 827 827 827 827 826
766 769 771 774 776 780 782 785 788 791 795 798 800 802 802 803 803 806 811 813 812 813 817 819 821 822 823 823 823 823 823 824 824 824 825 825 825 825 825 825 824 824
762 764 767 769 771 775 778 781 784 787 790 793 795 797 798 798 799 801 805 809 810 810 812 815 817 819 819 820 820 820 820 821 821 822 822 822 823 823 823 823 822 822
757 759 761 764 767 772 777 779 781 785 787 789 792 794 795 796 797 798 800 804 807 808 809 811 813 815 816 816 817 817 818 818 819 820 820 821 821 821 821 821 820 820
753 756 758 762 766 771 774 776 778 782 784 787 791 793 794 795 797 799 799 801 804 805 807 808 809 811 812 813 814 815 815 816 816 817 818 818 819 819 819 818 818 817
751 754 758 761 765 767 768 771 776 781 782 784 788 791 792 794 796 798 799 800 802 803 805 806 806 808 809 810 811 812 812 813 814 815 815 816 816 816 816 815 815 814
749 752 756 759 761 763 765 767 773 778 780 780 783 786 789 791 793 795 798 800 800 801 802 803 803 804 806 807 808 809 809 810 811 811 812 812 812 812 812 812 811 811
746 749 752 755 758 760 763 764 766 771 775 777 779 781 784 788 791 792 795 797 798 797 797 799 800 801 803 804 805 806 807 807 808 808 808 809 809 809 809 808 808 807
743 746 749 753 755 758 761 762 764 768 771 772 775 778 781 784 788 790 791 793 794 794 794 795 796 798 799 801 802 803 804 804 805 805 805 806 806 806 806 805 804 804
742 745 747 750 753 756 759 762 765 770 772 770 772 776 780 783 785 787 788 790 790 790 791 792 794 795 796 798 799 800 802 802 802 803 803 803 803 803 803 802 802 801
741 743 746 748 751 755 758 761 765 769 771 772 773 776 779 781 783 784 785 787 787 788 789 790 791 792 793 795 797 798 799 800 800 801 800 800 800 800 800 800 799 799
739 742 744 747 749 753 756 760 763 764 767 770 773 775 777 779 781 781 782 784 785 785 786 787 787 789 791 793 794 796 797 798 798 798 797 797 797 797 798 798 797 797
737 741 743 744 747 750 753 757 759 760 762 766 770 773 775 776 778 779 780 782 782 782 783 784 785 787 788 790 792 794 794 794 794 794 794 794 795 795 795 795 795 795
735 738 741 743 745 748 751 753 755 758 760 764 767 770 772 774 775 776 777 778 779 779 780 781 783 784 786 787 789 790 791 791 791 791 791 792 793 793 793 793 793 792
733 736 738 741 743 745 747 750 753 757 759 762 765 768 769 771 771 772 774 775 776 777 778 779 780 781 783 784 786 787 788 788 788 789 789 790 791 791 791 791 790 790
732 734 736 738 741 742 745 749 752 755 758 760 763 766 767 768 769 770 771 772 774 775 776 777 778 779 780 782 783 784 785 785 785 786 787 788 789 789 788 788 788 788
730 732 735 737 739 741 744 748 751 753 756 759 761 763 765 765 767 768 769 770 772 773 774 775 777 778 779 780 781 782 783 782 783 785 787 787 788 788 787 786 786 786
Wind_Speed
36 35 33 32 31 29 28 26 25 25 26 25 24 23 22 21 20 18 15 15 15 15 15 15 14 12 11 11 11 10 9 8 7 7 7 7 7 7 7 8 8 8
37 36 34 33 33 30 27 25 25 26 26 25 24 22 21 20 19 17 15 15 15 15 15 15 14 13 12 12 12 11 11 10 9 9 9 9 10 10 10 9 9 9
37 36 35 34 33 30 26 25 25 26 26 24 23 22 20 20 19 17 16 15 15 16 16 16 15 13 13 13 12 12 12 12 11 11 11 12 12 12 12 11 10 11
37 36 36 34 33 30 26 25 26 27 26 25 24 22 20 20 19 18 16 15 15 17 17 16 15 14 13 12 12 13 13 13 13 13 13 14 14 14 14 13 12 12
37 37 36 34 33 30 27 26 27 28 27 25 24 22 21 20 19 18 17 16 16 17 17 16 15 14 13 13 13 14 14 14 15 15 15 14 14 15 15 14 14 13
36 36 36 35 33 31 28 28 28 28 27 25 24 23 21 20 19 17 16 16 17 18 17 16 15 15 14 14 14 14 15 15 15 16 15 14 14 15 15 15 14 14
36 36 36 35 33 32 30 29 29 28 27 25 24 23 22 21 18 16 15 17 17 18 17 16 15 15 14 14 14 15 16 16 16 16 16 16 16 16 16 16 16 15
36 36 35 35 34 33 31 30 29 28 27 25 24 23 22 20 17 14 15 17 17 18 17 17 16 16 15 15 15 15 16 17 17 17 17 18 18 18 18 18 17 17
35 35 35 35 35 34 33 32 30 29 27 25 24 23 21 19 15 13 15 17 17 17 18 18 18 17 16 16 16 17 18 18 19 19 20 20 20 19 18 18 18 18
35 35 35 35 36 36 35 33 31 29 27 24 23 22 21 19 15 13 15 17 17 17 19 20 20 19 18 17 18 19 19 20 20 21 20 19 18 17 16 15 16 16
35 35 35 37 38 38 36 35 33 31 29 26 26 26 24 21 18 16 18 20 20 20 21 22 22 21 20 19 19 20 21 21 21 21 19 16 15 14 13 14 14 15
36 37 37 39 41 40 38 37 35 33 31 30 29 29 26 23 22 22 22 23 23 23 23 23 23 22 21 21 21 21 22 22 21 20 17 15 14 13 13 14 14 14
39 40 40 40 42 40 38 38 37 35 33 32 30 29 26 24 24 25 25 25 25 26 25 23 23 24 23 23 22 22 23 22 21 19 17 15 15 14 14 14 14 14
40 40 39 38 38 38 38 39 38 37 35 32 29 28 28 26 25 25 26 26 27 28 26 24 24 25 25 24 23 23 23 22 20 19 18 16 16 15 15 16 16 16
38 36 36 34 35 38 40 39 38 38 37 33 30 29 28 27 26 26 27 27 28 28 27 25 25 25 25 25 24 23 22 20 20 20 19 18 17 17 17 17 18 18
36 35 33 31 35 39 40 39 39 40 37 34 33 31 27 26 27 27 26 27 29 29 27 27 27 26 24 23 22 20 19 19 20 20 19 18 18 18 18 19 19 20
35 33 31 32 36 38 39 40 41 42 41 37 34 31 28 26 27 26 25 28 30 29 28 28 29 26 23 21 19 18 18 19 19 19 19 18 19 19 20 20 20 20
33 30 29 31 33 36 39 39 37 37 38 38 34 30 28 26 26 27 28 30 31 29 28 29 29 26 22 20 18 17 18 19 19 19 18 18 20 21 21 21 21 20
30 26 26 29 31 35 38 34 28 28 30 33 34 31 26 25 27 30 31 31 30 28 27 28 28 26 22 20 19 18 18 18 19 19 18 20 21 21 21 21 20 18
26 24 24 26 27 30 31 27 26 29 28 26 28 29 27 27 29 31 31 30 28 26 26 26 28 27 24 22 21 20 19 19 20 20 20 21 21 20 20 19 17 16
23 23 23 26 27 27 25 24 27 32 29 25 25 27 29 30 28 26 27 28 26 25 24 25 27 27 25 23 23 22 20 21 22 21 20 20 19 18 16 15 15 15
22 22 22 27 30 28 26 26 28 31 31 29 27 25 25 25 23 21 22 24 24 25 24 24 25 26 24 23 23 24 22 22 21 19 18 17 16 15 14 15 16 14
21 22 24 27 29 28 27 28 30 30 30 28 25 23 22 23 21 19 20 22 23 23 24 25 25 25 24 22 23 25 24 22 20 17 15 14 13 14 15 15 14 11
20 23 27 28 27 26 27 30 31 28 24 23 22 22 22 21 19 18 18 20 21 20 21 23 23 23 23 21 21 23 22 20 18 16 14 12 12 14 15 14 12 10
20 23 28 29 27 26 28 31 31 26 21 19 20 21 20 18 17 16 15 17 19 18 20 22 20 19 20 20 20 20 21 20 18 15 12 12 13 14 14 13 12 10
20 25 28 26 26 27 28 29 26 22 18 17 18 19 19 16 15 14 14 15 16 16 18 19 17 16 17 17 17 19 20 20 16 11 10 11 12 13 13 10 9 7
Wind_Direction
225 224 224 224 225 225 224 224 221 215 210 207 208 210 212 213 212 210 211 215 218 224 230 230 230 237 243 240 236 238 241 243 243 243 244 248 254 257 261 264 264 265
223 223 223 224 224 223 223 224 221 215 212 213 214 216 216 214 211 210 212 216 222 227 229 227 229 238 242 237 236 239 243 245 245 246 248 249 253 256 259 262 264 265
222 221 222 223 222 221 221 223 221 217 216 217 218 217 215 213 211 210 214 219 225 226 224 224 230 237 239 237 240 242 243 245 246 249 255 256 257 259 260 261 263 265
219 221 222 223 222 221 221 221 219 217 217 218 217 216 213 210 209 210 214 219 221 219 219 225 233 236 235 237 242 244 245 247 250 254 259 262 262 262 263 264 267 269
220 221 222 222 220 219 219 219 217 216 216 217 216 213 210 208 208 210 214 217 215 215 220 230 235 234 235 240 244 246 249 252 255 258 260 262 263 263 265 267 269 270
221 221 221 219 218 216 216 216 217 216 214 214 212 210 207 206 207 210 214 216 214 217 226 233 235 233 236 242 245 248 251 255 258 261 262 262 262 264 267 268 268 267
221 220 218 217 215 215 215 215 216 215 214 211 208 206 205 203 203 207 216 219 218 224 231 233 233 235 238 242 245 248 252 256 260 262 262 262 262 264 268 271 271 270
220 219 216 214 213 213 215 215 215 215 213 209 206 205 203 199 196 201 215 220 221 227 232 233 234 236 238 240 243 247 251 254 258 260 261 262 264 268 271 274 275 275
219 217 214 213 212 213 213 213 213 214 211 206 205 203 198 196 197 202 211 216 219 226 233 237 240 239 240 242 246 249 253 257 260 262 264 265 267 270 273 275 276 278
217 216 213 211 211 212 211 210 210 209 205 204 203 197 193 195 198 201 209 214 215 221 233 241 243 244 245 248 251 254 257 261 265 268 268 267 267 270 273 272 273 276
216 215 212 210 211 210 209 207 206 203 201 199 196 193 192 191 189 193 209 217 214 215 227 240 245 246 248 251 254 257 260 263 269 271 269 266 267 271 272 271 271 274
215 214 212 210 211 209 206 205 203 200 198 195 193 193 192 189 188 193 205 215 218 217 223 235 244 247 248 251 254 259 264 268 271 269 262 260 264 268 271 272 272 272
216 216 214 212 209 205 204 204 202 199 196 195 195 195 191 189 194 199 204 212 219 222 224 232 242 247 249 252 256 261 267 271 270 262 254 255 260 264 267 270 269 269
219 217 215 211 204 202 205 205 202 199 197 195 194 193 192 194 199 206 210 214 219 225 230 236 242 248 251 254 259 265 268 267 262 254 250 254 260 263 265 267 268 271
219 216 214 207 200 201 204 201 200 200 198 194 192 194 198 200 203 211 217 220 223 230 238 244 246 248 252 256 261 265 263 259 254 249 249 255 262 266 268 270 271 273
218 215 212 203 199 201 200 196 197 201 199 192 190 195 200 203 208 215 221 227 230 232 238 246 248 250 254 257 258 258 255 253 252 249 250 257 264 268 272 274 275 276
216 213 207 201 198 199 197 195 196 197 197 192 189 192 196 204 212 216 221 232 236 235 238 245 248 251 255 257 254 251 251 252 252 251 254 261 266 269 273 276 277 278
213 207 202 199 198 196 196 197 195 193 192 188 187 191 196 206 215 216 220 232 237 237 239 244 248 251 254 256 253 249 249 250 250 253 258 264 269 273 277 278 277 276
208 201 197 197 197 195 196 197 193 192 191 188 189 196 202 211 217 217 224 233 236 235 239 246 251 251 252 255 251 246 247 246 249 255 260 266 272 276 279 278 276 276
202 197 194 194 194 192 193 193 190 193 194 189 190 197 206 216 220 221 228 234 234 236 242 250 252 250 252 255 249 244 247 248 252 258 262 268 273 274 275 275 273 271
197 195 193 193 192 190 188 190 191 193 192 189 193 201 210 218 222 225 231 234 235 239 246 251 252 252 255 256 248 245 249 253 256 260 263 268 270 270 270 268 266 269
193 194 194 195 196 191 187 188 191 193 193 195 201 207 213 219 225 227 231 234 237 244 249 250 252 253 256 255 249 246 249 254 256 257 261 264 264 263 264 263 266 271
189 191 194 196 196 191 188 188 189 190 193 197 203 209 215 220 225 227 231 236 240 247 252 252 253 255 255 255 251 247 248 251 251 249 251 253 254 259 263 265 270 275
186 190 196 198 195 191 189 189 190 191 193 197 202 211 218 220 222 226 231 237 242 248 251 251 252 254 255 256 255 250 247 246 243 240 240 242 249 259 265 269 273 277
183 190 198 199 197 194 191 189 192 196 198 199 206 216 221 221 223 228 233 240 247 252 252 250 248 250 256 261 259 251 245 240 235 230 231 239 249 257 261 266 270 274
184 192 198 198 199 199 193 189 193 198 200 205 213 219 222 223 226 232 239 246 252 253 251 249 245 246 258 266 257 245 241 234 222 218 232 242 249 253 253 256 261 266